sat.trackr.live / text

‹ back to catalog

VSP RF A1

NORAD 59135 · 2024-043AP

PAYLOAD ACTIVE UNKNOWN

§ Identity

Operator
Country
BEL
Launch date
2024-03-04
Launch site
AFWTR
Launch vehicle
Mass (kg)
RCS (m²)

External: N2YO · Heavens-Above · Gunter

§ Orbital elements

Epoch: 2026-05-25T00:23:55.795200Z

Period
94.33 min
Inclination
97.5395°
Eccentricity
0.0008240
Mean motion
15.26618389 rev/d
Perigee alt
480.3 km
Apogee alt
491.6 km
Semi-major
6,864.1 km
B*
1.0331e-6
RAAN
281.1914°
Arg perigee
328.0146°
Mean anomaly
32.0591°
Rev number
12,345

§ Raw data

VSP RF A11 59135U 24043AP  26145.01661800 -.00000048  00000+0  10331-5 0  99912 59135  97.5395 281.1914 0008240 328.0146  32.0591 15.26618389123451

JSON: /api/v1/satellites/59135 · /tle

For live sub-satellite position, see the globe view (requires WebGL).

§ Visibility from observer

Set your observer location to see the next 7 days of passes ≥ 10°. The values pass through the URL so the page stays shareable.

No JS? Fill the form by hand. The geolocation button needs JavaScript.